Current Conditions for Foresthill, CA. Clear skies, Dry   
Visibility: 10 miles
Space WX Alerts: WARNING:  Geomagnetic K-index of 4 expected ( Latest Alert ) - Issue Time: 2018 Jul 17 0552 UTC

  Summary / Temperature 

Current Temperature
77.1°F
25.1°C
(24/hr Ago)
77.0°F
(Apparent temp)
77.4°F
Comfortable
Heat Index
77.0°F 

79.8°F/ 26.6°C
Little or no discomfort

 Temp Rate:

 24/hr Difference:

 Avg Running Temp:

 Todays High:

 Todays Low:

 Y-days High:

 Y-days Low:

 Todays HeatIdx:

 Y-days HeatIdx:

 Evapotranspiration:

-3.7°F/hr 

+0.1°F

79.7°F

91.0°F 2:40pm

70.5°F 6:45am

91.0°F 3:37pm

71.0°F 6:35am

89.6°F 2:46pm

90.6°F 1:55pm

0.228 in

115' Above Ground

 Temperature:

 6'AGL VRS 115'AGL:

 Avg Running Temp:

 Humidity:

 Todays High:

 Todays Low:

 Y-days High:

 Y-days Low:

85.0°F 

+7.9°F

86.5°F

28% 

92.0°F 4:42pm

73.0°F 5:37am

92.0°F 4:04pm

73.0°F 6:05am

Temp & Humidity Graphs

  Wind 

Wind Speed

 Calm

Gusting to

 None

Calm

286°  

Calm

 Avg speed:

 Wind Run:

 Peak Gust:

Calm 

33.0 miles

  14.0 mph 6:17am

  Almanac  

Moon age: 5 days,16 hours,43 minutes,33%

Waxing Crescent
33%
Illuminated
5 days in cycle

 Moonrise:

 Moonset:

 Sunrise:

 Sunset:

 Solar Noon:

11:11am

11:54pm

5:52am

8:27pm

1:10pm

1min 22s less daylight tomorrow 

  Solar Radiation 

(Current Solar)
  No Sun Light
(Todays High)
 947 W/m2@1:19pm

Rain

 Rain Today:

 Rain Rate (/hr):

 Rain last hour:

 Rain Yesterday:

 This Month:

 Season Total:

52 Days Since Last Rain Day

0.00 in

0.000 in

0.00 in

0.00 in

0.00 in

0.00 in

Updated Time

Updated: 7/17/18  9:27pm

(Updated  sec ago)

Humidity & Barometer

 Humidity:

 Wetbulb:

 Dew Point:

 Barometer:

40% 

62.5°F 

50.9°F 

29.912 inHg 

 Baro Trend:  Steady 
Northern Calif
Preparedness
Fire 
Level 

    UV Index  

(Current UV)
0.0  None
(Todays High) @ 1:19pm
8.8   Very High

National Weather Service Forecast

Tonight

Tonight: Haze
Haze
Wednesday

Wednesday: Haze then Sunny
Haze then Sunny
Wednesday
Night
Wednesday Night: Mostly Clear
Mostly Clear
Thursday

Thursday: Mostly Sunny
Mostly Sunny
Thursday
Night
Thursday Night: Partly Cloudy
Partly Cloudy
Friday

Friday: Mostly Sunny
Mostly Sunny
Lo 72 °F Hi 98 °F Lo 73 °F Hi 93 °F Lo 72 °F Hi 91 °F

Foresthill Probe 2 Stats  
Foresthill Probe 2: is located on Thomas Street
at 3000 feet. The main Foresthill Weather site
is located on Melody ln at the 2860 foot elevation

Calm
78.4°F
25.8°C
Temp Rate:
-3.8°F
Calm
Gusting to
None
(Humidity)
41%
Calm
338°  
Updated: 17/07/18 - 21:22:20
 Todays High: 95.2°F 14:32
 Todays Low: 69.2°F 06:41
 Rain Today: 0.00 in
 Season Total: 0.00 in

Foresthill Wx: Monthly,Yearly, Highs and Lows 

Foresthill  
This Weather Data is coming from the main Foresthill
Weather site located on Melody ln at the 2860 foot
elevation
Not Foresthill Probe 2
Weather Data
Month
  High
Month
  Low
Year
High
Year
Low
Temp 91.0°F
7/16/18
60.2°F
7/5/18
91.4°F
6/24/18
21.9°F
2/23/18
Humidity 73%
7/4/18
12%
7/8/18
100%
1/8/18
12%
7/8/18
Heat Index 90.6°F
7/16/18
63.2°F
7/5/18
90.6°F
7/16/18
27.1°F
2/20/18
Wind Chill 91.0°F
7/16/18
58.8°F
7/5/18
91.4°F
6/24/18
9.2°F
2/23/18
Wind Gust 20 mph
7/3/18
0 mph
7/1/18
43 mph
3/1/18
0 mph
1/1/18
Barometer 30.18 in
7/5/18
29.73 in
7/3/18
30.55 in
1/27/18
29.60 in
6/16/18
ET 0.25 in
7/8/18
0.00 in
7/1/18
0.25 in
6/24/18
0.00 in
1/1/18
Dew Point 65.3°F
7/15/18
28.9°F
7/8/18
65.3°F
7/15/18
7.6°F
2/11/18
Pacific Satellite US Radar Satellite Imagery Sacramento,CA.  (click to enlarge)
NWS Weather Forecast - Summary
Updated: Tuesday, July 17, 2018 - 2:28pm PDT
Current Interstate Highway Conditions for I-80 & US-50

[I 80: IN THE SAN FRANCISCO BAY AREA - SOLANO CO]
no traffic restrictions are reported for this area.

[I 80: IN THE NORTHERN CALIFORNIA AREA & SIERRA NEVADA]
no traffic restrictions are reported for this area.

[US 50: IN THE SACRAMENTO VALLEY & THE LAKE TAHOE BASIN]
no traffic restrictions are reported for this area.
NWS Weather Forecast: Tonight and Wednesday (Updated: Tue, 17-Jul-2018 2:18pm PDT)
Tonight

Tonight: Haze
Haze

Lo 72 °F
NWS forecast: Haze and areas of smoke. Mostly clear, with a low around 72. Northeast wind 5 to 9 mph.
Wednesday

Wednesday: Haze then Sunny
Haze then Sunny

Hi 98 °F
NWS forecast: Haze and areas of smoke before 11am. Sunny, with a high near 98. North northwest wind 6 to 9 mph.
YR.NO 10 Day Weather forecast
Last update: 07/17/2018 @ 12:34
Next update: 07/18/2018 @ 01:00
Provided by: 22
      Temperature Precipitation Pressure Wind  
Today
07/17/2018
20:00 00:00 82°F   29.89 inHg Light breeze from southwest 4 mph
    (Click to enlarge)
meteogram

    Forecast for next 9 days

      Temperature Precip Pressure Wind  
Wednesday
07/18/2018
00:00 06:00 66°F   29.94 inHg Light breeze from east-northeast 4 mph
  06:00 12:00 61°F   29.93 inHg Light breeze from east-northeast 7 mph
  12:00 18:00 97°F   29.91 inHg Light breeze from west-southwest 6 mph
  18:00 00:00 95°F   29.82 inHg Light breeze from west-southwest 6 mph
      Temperature Precip Pressure Wind  
Thursday
07/19/2018
00:00 06:00 70°F   29.89 inHg Light breeze from east-northeast 6 mph
  06:00 12:00 64°F   29.86 inHg Light breeze from east-northeast 5 mph
  12:00 18:00 93°F   29.89 inHg Light breeze from southwest 7 mph
  18:00 00:00 91°F   29.81 inHg Light breeze from southwest 6 mph
      Temperature Precip Pressure Wind  
Friday
07/20/2018
00:00 06:00 72°F   29.88 inHg Light air from east 2 mph
  05:00 11:00 61°F   29.88 inHg Light air from east-northeast 2 mph
  11:00 17:00 88°F   29.91 inHg Light breeze from west-southwest 5 mph
  17:00 23:00 91°F   29.82 inHg Light breeze from west-southwest 7 mph
  23:00 05:00 72°F   29.90 inHg Light breeze from southeast 4 mph
      Temperature Precip Pressure Wind  
Saturday
07/21/2018
05:00 11:00 66°F   29.92 inHg Light air from east 3 mph
  11:00 17:00 82°F   29.95 inHg Light breeze from west-southwest 5 mph
  17:00 23:00 88°F   29.90 inHg Light breeze from west-southwest 6 mph
  23:00 05:00 72°F   29.97 inHg Light air from southeast 2 mph
      Temperature Precip Pressure Wind  
Sunday
07/22/2018
05:00 11:00 63°F   29.98 inHg Light breeze from east-northeast 4 mph
  11:00 17:00 90°F   29.98 inHg Light breeze from west-southwest 6 mph
  17:00 23:00 91°F   29.94 inHg Light breeze from west-southwest 7 mph
  23:00 05:00 73°F   30.01 inHg Light air from east 2 mph
      Temperature Precip Pressure Wind  
Monday
07/23/2018
05:00 11:00 63°F   29.98 inHg Light air from east-northeast 3 mph
  11:00 17:00 90°F   29.98 inHg Light breeze from west-southwest 7 mph
  17:00 23:00 90°F   29.94 inHg Light breeze from west-southwest 7 mph
  23:00 05:00 73°F   30.00 inHg Light air from east 2 mph
      Temperature Precip Pressure Wind  
Tuesday
07/24/2018
05:00 11:00 63°F   29.97 inHg Light breeze from east-northeast 4 mph
  11:00 17:00 88°F   30.00 inHg Light breeze from west-southwest 6 mph
  17:00 23:00 90°F   29.95 inHg Light breeze from southwest 7 mph
  23:00 05:00 72°F   29.99 inHg Light air from east-southeast 2 mph
      Temperature Precip Pressure Wind  
Wednesday
07/25/2018
05:00 11:00 61°F   29.97 inHg Light breeze from east-northeast 4 mph
  11:00 17:00 90°F   29.99 inHg Light breeze from southwest 6 mph
  17:00 23:00 91°F   29.95 inHg Light breeze from southwest 6 mph
  23:00 05:00 72°F   29.99 inHg Light air from east 2 mph
      Temperature Precip Pressure Wind  
Thursday
07/26/2018
05:00 11:00 61°F   29.96 inHg Light breeze from east-northeast 5 mph
  11:00 17:00 91°F   29.97 inHg Light breeze from west-southwest 6 mph
  17:00 23:00 93°F   29.92 inHg Light breeze from southwest 6 mph
  23:00 05:00 72°F   29.94 inHg Light air from east 3 mph

NOAA Local Storm Report
LAKE DE SMET   ( More )
DATE
07/17/2018
TIME
3:38 PM
COUNTY
JOHNSON
STATE
WY
GEOGRAPHIC
44.47N 106.76W
SOURCE
PUBLIC
HAIL ESTIMATED AT 1.00 INCH
How Close Are We To this Month's Temperature Record ?
Updated Tuesday, Jul 17, 2018- 9:20:00 PM

Current Temperature: 77.1°F

July's High: Temperature Record 98.1°F - Set on Wed, Jul 29, 2015 - 2:57:00 PM
We are currently 21°F Less than this Month's record High

July's Low: Temperature Record 51.4°F - Set on Sun, Jul 10, 2016 - 7:04:00 AM
We are currently 25.7°F More than this Month's record Low

Weather History For Wednesday, July 18, 2018


On this Day - In Weather History ...
Data courtesy of weatherforyou.com
powered by Cumulus v1.9.3 (1059)
Ambient Weather VWS v14.00
Top Contact Website Map Copyright © 2007 - 2018 Foresthillweather.com Never base important decisions on this or any weather information obtained from the Internet